Location: Bannatyne
(13.0833°N, 59.5333°W)
Time: 05:48:51
(UTC+00:00)

Vanguard 2 Rocket - Pass Details

Date: 24 January 2020
Orbit: 554 x 3326 km, 32.9° (Epoch: 07 April)

Event Time Altitude Azimuth Distance (km) Brightness Sun altitude
Rises 12:45:50 0° 315° (NW) 3,792 9.6 30.2°
Reaches altitude 10° 12:48:26 10° 326° (NW) 3,133 9.3 30.7°
Maximum altitude 12:55:34 32° 28° (NNE) 2,612 9.4 32.2°
Drops below altitude 10° 13:07:04 10° 85° (E) 5,103 11.5 34.5°
Sets 13:12:43 0° 94° (E) 6,562 12.0 35.7°
